Demo 6
Misión y Visión

La misión es proporcionar información fiable a la navegación aérea, contribuyendo a la seguridad, regularidad y eficiencia de la Navegación Aérea Internacional

La visión es contribuir sustancialmente al desarrollo de conocimientos y a la utilización de la meteorología aeronáutica a nivel nacional e internacional, mediante la innovación y la coparticipación con sectores sociales y productivos de la sociedad.

 
  Inicio
  Metar
  Taf
  Wintemp
  SIGMET
  Avisos
  Pronósticos
  Carpeta Meteorologica
  Imágenes Satelitales
  Climatología Aeronáutica
   
  ¿Quienes Somos?
  Contacto
  Eventos
Taf

 

IMÁGENES DEL AEROPUERTO
(EN CONSTRUCCION)

 

PRONOSTICO DE AERÓDROMO
TAF / PROYECCION CLIMATICA
MES DE JULIO

 

AEROPUERTO ENRIQUE MALEK:

TAF MPDA 172200Z 1800/1812 18010KT 9999 FEW020 BECMG 1804/1808 20008KT FEW018


TAF:

TAF MPSM 172200Z NIL =

 

AEROPUERTO PANAMA PACIFICO:

hola



TAF:



AEROPUERTO MARCOS A. GELABERT:

TAF MPMG 172200Z 1800/1812 33010KT 9999 SCT018 BECMG 1804/1808 33006KT FEW017



TAF:



AEROPUERTO INTL. DE TOCUMEN:

TAF MPTO 172200Z 1800/1906 22008KT 9999 SCT018 BECMG 1804/1808 30006KT FEW018 TEMPO 1808/1812 02008KT



TAF:

TAF MPPA 172200Z 1800/1906 30008KT 9999 FEW020 BECMG 1804/1808 34006KT FEW018


 
 

Found

The document has moved here.